This is the latest recevied weather packets stored in our database for station/object DG3OBU-6. If no packets are shown the sender has not sent any weather packets the latest 10 day(s).
| Time | Temp. | Humidity | Pressure | Rain* | Wind** | Luminosity | Snow |
|---|---|---|---|---|---|---|---|
| 1776949203 | 16.11° C | 51% | 1025.4 hPa | 0 mm | - | - | - |
| 1776948903 | 16.11° C | 51% | 1025.6 hPa | 0 mm | - | - | - |
| 1776948603 | 16.11° C | 51% | 1025.5 hPa | 0 mm | - | - | - |
| 1776948303 | 16.11° C | 50% | 1025.7 hPa | 0 mm | - | - | - |
| 1776948003 | 16.11° C | 51% | 1025.6 hPa | 0 mm | - | - | - |
| 1776947703 | 16.11° C | 52% | 1025.8 hPa | 0 mm | - | - | - |
| 1776947403 | 15.56° C | 52% | 1025.7 hPa | 0 mm | - | - | - |
| 1776947103 | 15.56° C | 51% | 1025.7 hPa | 0 mm | - | - | - |
| 1776946802 | 15° C | 54% | 1025.7 hPa | 0 mm | - | - | - |
| 1776946502 | 15° C | 54% | 1025.7 hPa | 0 mm | - | - | - |
| 1776946202 | 15° C | 57% | 1025.8 hPa | 0 mm | - | - | - |
| 1776945902 | 15° C | 58% | 1025.9 hPa | 0 mm | - | - | - |
| 1776945602 | 14.44° C | 58% | 1026 hPa | 0 mm | - | - | - |
| 1776945302 | 14.44° C | 57% | 1026 hPa | 0 mm | - | - | - |
| 1776945002 | 14.44° C | 59% | 1026 hPa | 0 mm | - | - | - |
| 1776944702 | 14.44° C | 59% | 1026 hPa | 0 mm | - | - | - |
| 1776944403 | 13.89° C | 60% | 1026.2 hPa | 0 mm | - | - | - |
| 1776944103 | 13.33° C | 61% | 1026.3 hPa | 0 mm | - | - | - |
| 1776943803 | 13.33° C | 60% | 1026.3 hPa | 0 mm | - | - | - |
| 1776943503 | 13.33° C | 60% | 1026.4 hPa | 0 mm | - | - | - |
| 1776943203 | 13.33° C | 60% | 1026.5 hPa | 0 mm | - | - | - |
| 1776942903 | 12.78° C | 59% | 1026.5 hPa | 0 mm | - | - | - |
| 1776942603 | 13.33° C | 60% | 1026.5 hPa | 0 mm | - | - | - |
| 1776942303 | 12.78° C | 61% | 1026.5 hPa | 0 mm | - | - | - |
| 1776942003 | 12.78° C | 59% | 1026.6 hPa | 0 mm | - | - | - |
* Rain latest hour (hover to see other rain measurements)
** Current wind speed in m/s (hover to see current wind gust speed)